sat.trackr.live / text

‹ back to catalog

STARLINK-31142

NORAD 58779 · 2024-011Q

PAYLOAD ACTIVE UNKNOWN

§ Identity

Operator
Country
US
Launch date
2024-01-14
Launch site
AFWTR
Launch vehicle
Mass (kg)
RCS (m²)

Purposes: comms

External: N2YO · Heavens-Above · Gunter

§ Orbital elements

Epoch: 2026-05-25T00:24:48.288384Z

Period
94.11 min
Inclination
53.1621°
Eccentricity
0.0001229
Mean motion
15.30198771 rev/d
Perigee alt
474.4 km
Apogee alt
476.1 km
Semi-major
6,853.4 km
B*
3.0828e-5
RAAN
19.3281°
Arg perigee
93.6029°
Mean anomaly
266.5113°
Rev number
13,195

§ Raw data

STARLINK-311421 58779U 24011Q   26145.01722556  .00000554  00000+0  30828-4 0  99982 58779  53.1621  19.3281 0001229  93.6029 266.5113 15.30198771131958

JSON: /api/v1/satellites/58779 · /tle

For live sub-satellite position, see the globe view (requires WebGL).

§ Visibility from observer

Set your observer location to see the next 7 days of passes ≥ 10°. The values pass through the URL so the page stays shareable.

No JS? Fill the form by hand. The geolocation button needs JavaScript.